Total_Precipitation_Accumulation
0.46 0.43 0.38 0.39 0.44 0.47 0.52 0.61 0.69 0.87 0.98 1.03 1.15 1.34 1.51 1.67 1.82 1.90 1.78 1.62 1.60 1.78 1.92 1.84 1.91 1.92 1.80 1.81 1.87 1.91 1.87 1.66 1.52 1.58 1.47 1.19 0.94 1.00 0.97 0.92 0.95 1.02 1.12
0.31 0.29 0.26 0.28 0.29 0.31 0.36 0.45 0.54 0.62 0.76 0.93 1.18 1.38 1.67 1.74 1.81 1.94 1.98 1.89 1.83 2.01 2.05 2.12 2.20 2.22 2.21 2.16 2.05 2.18 2.33 2.05 1.79 1.89 2.19 1.81 1.39 1.01 0.80 0.87 0.91 1.01 1.25
0.20 0.16 0.17 0.20 0.24 0.24 0.25 0.34 0.46 0.59 0.82 1.05 1.39 1.68 1.96 2.04 2.08 2.02 2.05 2.10 2.14 2.22 2.26 2.31 2.36 2.37 2.21 2.20 2.30 2.45 2.80 2.60 2.21 1.99 2.26 2.12 1.80 1.46 1.01 0.90 0.94 1.03 1.20
0.19 0.16 0.17 0.18 0.20 0.23 0.29 0.41 0.59 0.79 1.06 1.38 1.76 2.04 2.30 2.42 2.26 2.20 2.19 2.17 2.13 2.17 2.28 2.29 2.27 2.24 2.18 2.23 2.29 2.35 2.77 2.99 2.69 2.32 1.92 1.72 1.69 1.77 1.48 1.08 1.00 1.08 1.09
0.24 0.21 0.23 0.24 0.29 0.38 0.46 0.64 0.90 1.20 1.47 1.70 1.90 2.14 2.29 2.30 2.25 2.18 2.17 2.09 2.05 2.03 2.05 2.06 2.15 2.17 2.22 2.27 2.42 2.54 2.82 2.85 2.84 2.64 2.42 2.20 1.88 1.54 1.62 1.55 1.27 1.19 1.09
0.29 0.29 0.31 0.39 0.47 0.55 0.70 0.88 1.08 1.38 1.57 1.70 1.80 1.96 2.12 2.17 2.17 2.15 2.16 2.16 2.13 2.02 1.94 1.88 1.96 2.09 2.23 2.28 2.38 2.53 2.77 2.88 2.95 2.86 2.58 2.49 2.33 2.04 1.91 1.65 1.49 1.48 1.25
0.39 0.40 0.50 0.64 0.71 0.76 0.87 1.04 1.14 1.33 1.44 1.49 1.59 1.72 1.79 1.83 1.86 1.86 1.85 1.78 1.75 1.75 1.80 1.86 1.93 2.05 2.13 2.20 2.33 2.47 2.52 2.63 2.87 2.88 2.69 2.47 2.29 2.27 2.14 2.01 1.69 1.51 1.31
0.56 0.66 0.80 0.89 0.96 0.99 0.97 1.03 1.17 1.21 1.20 1.25 1.25 1.36 1.45 1.51 1.55 1.52 1.52 1.57 1.61 1.64 1.60 1.64 1.72 1.93 2.10 2.17 2.26 2.27 2.25 2.30 2.49 2.49 2.56 2.52 2.24 2.20 2.09 2.07 2.14 1.87 1.65
0.80 1.03 1.20 1.30 1.38 1.32 1.16 1.04 1.04 1.02 1.01 1.11 1.17 1.22 1.28 1.31 1.32 1.33 1.27 1.37 1.42 1.42 1.38 1.42 1.45 1.57 1.78 2.01 2.15 2.11 2.02 1.99 2.15 2.21 2.29 2.42 2.46 2.36 2.25 2.21 2.27 2.23 1.98
1.23 1.50 1.73 1.85 1.83 1.64 1.39 1.14 0.98 0.93 0.90 0.97 1.07 1.16 1.16 1.16 1.13 1.15 1.07 1.13 1.23 1.22 1.19 1.20 1.27 1.42 1.54 1.73 1.94 2.03 1.96 1.94 2.01 2.11 2.24 2.37 2.49 2.53 2.32 2.27 2.25 2.11 2.04
1.66 1.82 1.99 2.04 1.78 1.60 1.37 1.11 0.96 0.97 0.99 1.03 1.07 1.10 1.06 1.03 1.01 0.97 0.92 0.96 1.04 1.03 1.03 1.19 1.25 1.32 1.41 1.61 1.87 2.04 2.04 1.96 1.97 1.93 2.00 2.18 2.29 2.50 2.48 2.38 2.26 2.12 1.96
1.43 1.52 1.60 1.57 1.53 1.48 1.30 1.14 1.05 1.04 1.09 1.12 1.16 1.11 1.04 0.98 0.97 0.93 0.84 0.83 0.79 0.77 0.88 1.01 1.04 1.10 1.16 1.36 1.64 1.84 1.88 1.84 1.75 1.72 1.83 2.04 2.21 2.43 2.55 2.51 2.35 2.24 2.09
1.25 1.24 1.26 1.33 1.36 1.32 1.20 1.17 1.14 1.16 1.16 1.15 1.07 1.01 0.95 0.87 0.83 0.73 0.66 0.73 0.73 0.79 0.89 0.97 1.03 1.06 1.11 1.16 1.28 1.45 1.57 1.56 1.49 1.51 1.57 1.60 1.79 2.07 2.27 2.29 2.32 2.35 2.32
0.99 0.99 1.06 1.15 1.21 1.19 1.15 1.10 1.06 1.10 1.20 1.27 1.19 1.09 0.98 0.89 0.85 0.75 0.66 0.64 0.67 0.75 0.84 0.89 0.96 1.04 1.09 1.09 1.11 1.15 1.21 1.22 1.29 1.35 1.37 1.40 1.45 1.67 1.85 1.94 2.13 2.38 2.41
0.67 0.72 0.78 0.79 0.76 0.72 0.77 0.82 0.88 0.98 1.13 1.27 1.26 1.13 0.96 0.86 0.81 0.78 0.69 0.66 0.66 0.66 0.75 0.80 0.81 0.85 0.95 1.06 1.09 0.98 0.95 1.04 1.15 1.16 1.10 1.12 1.21 1.35 1.46 1.51 1.86 2.23 2.43
0.43 0.42 0.44 0.44 0.43 0.40 0.39 0.42 0.50 0.65 0.88 1.14 1.12 0.93 0.77 0.64 0.60 0.63 0.65 0.65 0.62 0.65 0.70 0.68 0.70 0.78 0.81 0.99 0.99 0.83 0.82 0.89 0.99 1.07 1.03 0.91 0.90 0.94 1.05 1.12 1.28 1.56 1.82
0.32 0.31 0.31 0.31 0.30 0.30 0.29 0.32 0.39 0.51 0.68 0.79 0.78 0.68 0.58 0.55 0.59 0.62 0.57 0.59 0.62 0.62 0.63 0.63 0.62 0.65 0.78 0.84 0.70 0.71 0.74 0.81 0.88 0.95 1.00 0.90 0.78 0.86 0.91 1.01 1.08 1.07 1.15
0.23 0.22 0.22 0.22 0.26 0.28 0.31 0.35 0.41 0.46 0.50 0.53 0.55 0.50 0.48 0.49 0.53 0.55 0.55 0.62 0.68 0.66 0.66 0.68 0.66 0.65 0.72 0.72 0.59 0.64 0.66 0.70 0.77 0.88 0.98 1.02 0.93 0.92 1.03 1.03 1.05 0.98 0.92
0.16 0.15 0.14 0.14 0.16 0.16 0.17 0.19 0.21 0.23 0.24 0.23 0.24 0.26 0.26 0.29 0.31 0.33 0.40 0.52 0.59 0.62 0.67 0.72 0.72 0.65 0.64 0.68 0.59 0.60 0.63 0.67 0.72 0.75 0.84 0.92 0.89 1.06 1.17 1.13 1.25 1.22 1.07
0.15 0.14 0.11 0.12 0.13 0.13 0.13 0.11 0.12 0.12 0.13 0.13 0.14 0.17 0.19 0.19 0.18 0.22 0.27 0.33 0.34 0.41 0.51 0.54 0.56 0.60 0.59 0.77 0.67 0.66 0.65 0.70 0.80 0.83 0.82 0.98 1.00 1.11 1.11 1.05 1.26 1.28 1.15
0.14 0.15 0.13 0.12 0.13 0.14 0.13 0.12 0.12 0.12 0.14 0.17 0.20 0.21 0.20 0.21 0.22 0.24 0.26 0.28 0.29 0.33 0.37 0.41 0.45 0.53 0.62 0.78 0.78 0.81 0.77 0.82 0.95 0.92 0.84 0.80 0.94 0.84 0.93 0.97 0.97 1.19 1.21
0.13 0.15 0.14 0.14 0.15 0.14 0.13 0.14 0.14 0.15 0.15 0.17 0.19 0.21 0.23 0.23 0.24 0.25 0.29 0.31 0.32 0.31 0.32 0.33 0.37 0.44 0.51 0.62 0.69 0.71 0.75 0.84 0.91 0.95 0.83 0.81 0.91 0.76 0.74 0.76 0.87 1.07 1.18
0.13 0.13 0.14 0.14 0.14 0.14 0.13 0.13 0.15 0.16 0.17 0.18 0.18 0.21 0.23 0.23 0.21 0.24 0.28 0.30 0.32 0.33 0.35 0.38 0.43 0.48 0.53 0.56 0.57 0.55 0.58 0.66 0.72 0.75 0.80 0.80 0.77 0.72 0.67 0.68 0.78 0.86 0.97
0.12 0.12 0.13 0.14 0.15 0.16 0.16 0.17 0.17 0.17 0.16 0.18 0.20 0.21 0.21 0.21 0.21 0.23 0.26 0.28 0.31 0.34 0.38 0.43 0.47 0.52 0.55 0.57 0.56 0.59 0.63 0.62 0.61 0.61 0.61 0.62 0.65 0.68 0.65 0.65 0.71 0.78 0.89
0.13 0.15 0.16 0.15 0.16 0.18 0.19 0.23 0.23 0.20 0.18 0.18 0.19 0.19 0.19 0.20 0.21 0.22 0.24 0.24 0.26 0.33 0.41 0.47 0.51 0.50 0.48 0.48 0.52 0.62 0.70 0.78 0.83 0.87 0.76 0.74 0.74 0.72 0.66 0.63 0.66 0.72 0.80
0.14 0.16 0.18 0.18 0.17 0.18 0.20 0.22 0.25 0.26 0.26 0.23 0.21 0.19 0.19 0.20 0.21 0.22 0.23 0.25 0.26 0.32 0.35 0.37 0.38 0.39 0.41 0.43 0.46 0.51 0.61 0.71 0.85 1.00 0.97 0.98 0.99 0.93 0.84 0.73 0.66 0.63 0.66